Location: Kermapucano
(48.0667°N, 3.3000°W)
Time: 20:54:29
(UTC+00:00)

SAR-Lupe-4 - Pass Details

Date: 29 November 2020
Orbit: 481 x 484 km, 98.2° (Epoch: 09 January)

Event Time Altitude Azimuth Distance (km) Brightness Sun altitude
Rises 05:17:27 0° 165° (SSE) 2,531 7.5 -23.1°
Reaches altitude 10° 05:19:30 10° 165° (SSE) 1,657 6.5 -22.8°
Enters shadow 05:22:33 64° 167° (SSE) 538 3.7 -22.2°
